Location: Triton
(47.6048°N, 122.9899°W)
Time: 14:57:56
(UTC+00:00)

ARIANE 6 FM1 Upper Stage - Pass Details

Date: 17 February 2026
Orbit: 523 x 607 km, 62.0° (Epoch: 8 March)

Event Time Altitude Azimuth Distance (km) Brightness Sun altitude
Rises 03:14:43 0° 316° (NW) 2,660 6.8 -17.0°
Reaches altitude 10° 03:16:54 10° 316° (NW) 1,768 5.8 -17.4°
Maximum altitude 03:20:52 83° 230° (SW) 535 2.5 -18.1°
Enters shadow 03:22:41 31° 144° (SE) 941 3.5 -18.4°
